CAPE
132 118 25 0 2 2 4 10 14 5 0 0 0 0 0 0 0 0 0 0 0 0 0 0 0 0 0 1 0 0 0 1 5 4 5 5 3 2 1 1 0 0 0 0
92 11 0 22 14 21 0 0 2 3 0 0 0 0 0 0 0 0 0 0 0 0 0 0 0 0 0 0 0 0 0 0 4 4 1 1 1 0 0 0 0 0 0 0
26 0 33 14 6 34 0 0 0 3 0 0 0 0 0 0 0 0 0 0 0 0 0 0 0 0 0 0 0 0 0 0 0 0 1 3 3 4 4 1 0 0 0 0
51 11 27 1 10 13 17 5 1 0 0 3 0 2 0 0 0 0 0 0 0 0 0 0 0 0 0 0 0 0 0 0 0 0 2 5 2 2 0 0 0 0 0 0
14 23 19 35 2 36 7 3 18 16 41 5 0 2 0 0 0 0 0 0 0 0 0 0 0 0 0 0 0 0 0 0 0 0 0 1 1 0 0 0 1 1 0 0
13 20 42 2 0 13 11 25 17 26 13 4 0 2 0 0 0 0 0 0 0 0 0 0 0 0 0 0 0 0 0 0 1 0 0 0 0 0 2 2 2 0 0 0
3 2 0 50 13 25 52 24 14 21 4 6 0 10 0 0 0 0 0 0 0 0 0 0 0 0 0 0 0 0 0 0 1 6 0 0 0 9 1 0 0 0 0 0
21 9 21 3 8 8 18 13 20 14 29 0 0 0 0 0 0 0 0 0 0 0 0 0 0 0 0 0 0 0 0 0 0 1 2 0 0 0 0 1 0 0 0 0
4 1 0 17 1 31 21 68 1 35 0 0 0 0 0 0 0 0 0 0 0 0 0 0 0 0 0 0 0 0 0 0 0 0 0 1 2 2 1 2 0 0 0 0
4 1 0 0 52 43 50 2 25 6 47 19 0 0 0 0 0 0 0 0 0 0 0 0 0 0 0 0 0 0 0 0 0 0 0 0 1 0 0 0 1 0 0 0
28 45 28 11 32 4 16 15 13 10 4 42 9 0 0 0 0 0 0 0 0 0 0 0 0 0 0 0 0 0 0 0 0 0 0 0 0 2 3 3 1 1 0 0
5 41 48 12 0 3 46 23 26 4 3 3 0 0 0 0 0 0 0 0 0 0 0 0 0 0 0 0 0 0 0 0 0 0 0 0 0 1 3 5 2 3 2 3
25 31 29 53 5 15 12 10 34 14 0 35 3 0 0 0 0 0 0 0 0 0 0 0 0 0 0 0 0 0 0 0 0 0 0 0 0 0 2 2 1 2 2 2
74 16 2 3 12 0 38 13 34 62 50 3 6 0 0 0 0 0 0 0 0 0 0 0 0 0 0 0 0 0 0 0 0 0 0 0 0 0 0 0 0 2 2 2
31 20 6 1 0 0 0 1 1 32 32 50 1 0 0 0 0 0 0 0 0 0 0 0 0 0 0 0 0 0 0 0 0 0 0 0 0 0 0 0 0 0 0 0
49 5 0 0 0 0 0 0 0 28 0 6 12 1 0 0 0 0 0 0 0 0 0 0 0 0 0 0 0 0 0 0 0 1 1 0 0 0 0 0 0 0 0 0
9 48 19 0 0 1 26 0 0 0 0 0 2 0 0 0 0 0 0 0 0 0 0 0 0 0 0 0 0 0 0 0 0 0 0 1 1 1 1 1 1 1 1 1
0 0 0 1 10 9 0 0 0 0 0 0 0 0 0 0 0 0 0 0 0 0 0 0 0 0 0 0 0 0 0 0 0 0 0 0 0 0 0 0 1 1 0 0
0 0 0 0 3 0 0 0 0 0 0 0 0 0 0 0 0 0 0 0 0 0 0 0 0 0 0 0 0 0 0 0 0 0 0 0 0 0 0 0 0 0 0 0
0 1 5 0 2 0 0 0 0 0 0 0 0 0 0 0 0 0 0 0 0 0 0 0 0 0 0 0 0 0 0 0 0 0 0 0 0 0 0 0 0 0 0 0
3 3 5 7 8 0 0 0 0 15 0 0 0 0 0 0 0 0 0 0 0 0 0 0 0 0 0 0 0 0 0 0 0 0 0 0 0 0 0 0 0 0 0 0
0 5 6 12 23 1 0 0 0 0 0 0 0 0 0 0 0 0 0 0 0 0 0 0 0 0 0 0 0 0 0 0 0 0 0 0 0 0 0 0 0 0 0 0
0 0 0 64 12 0 0 0 0 0 0 0 0 0 0 0 0 0 0 0 0 0 0 0 0 0 0 0 0 0 0 0 0 0 0 0 0 0 0 0 0 0 0 0
0 0 0 1 0 0 0 0 0 0 0 0 0 0 0 0 0 0 0 0 0 0 0 0 0 0 0 0 0 0 0 0 0 0 0 0 0 0 0 0 0 0 0 0
0 0 0 0 0 0 0 0 0 0 0 0 0 0 0 2 5 1 0 0 0 0 0 0 0 0 0 0 0 0 0 0 0 0 0 0 0 0 0 0 0 0 0 0
0 0 0 0 0 0 0 0 0 2 0 0 0 0 0 1 6 2 3 0 0 0 0 0 0 0 0 0 2 1 0 0 0 0 0 0 0 0 0 0 0 0 0 0
CIN
0 0 0 -24 -0 -1 -1 0 0 0 0 0 0 0 0 0 0 0 0 0 0 0 0 0 0 0 0 0 0 0 0 0 0 0 0 0 0 0 0 0 0 0 0 0
-1 -2 0 -0 -13 -0 0 -1 0 -0 0 0 0 0 0 0 0 0 0 0 0 0 0 0 0 0 0 0 0 0 0 0 0 0 0 0 0 0 0 0 0 0 0 0
-3 0 -2 -1 -1 -1 0 0 0 0 0 0 0 0 0 0 0 0 0 0 0 0 0 0 0 0 0 0 0 0 0 0 0 0 0 0 0 0 0 0 0 0 0 0
0 -0 -1 -2 -0 -0 0 -0 -1 0 0 -0 0 0 0 0 0 0 0 0 0 0 0 0 0 0 0 0 0 0 0 0 0 0 0 0 0 0 0 0 0 0 0 0
-0 -0 -1 -0 0 -0 -0 -2 -0 -0 -8 0 -0 0 0 0 0 0 0 0 0 0 0 0 0 0 0 0 0 0 0 0 0 0 0 0 0 0 0 0 0 0 0 0
-0 -5 0 -2 0 -1 -10 -3 -1 -6 -11 -5 0 -1 0 0 0 0 0 0 0 0 0 0 0 0 0 0 0 0 0 0 0 0 0 0 0 0 0 0 0 0 0 0
0 0 0 -3 0 0 0 -1 -0 -0 0 0 0 0 0 0 0 0 0 0 0 0 0 0 0 0 0 0 0 0 0 0 0 0 0 0 0 -386 -121 0 0 0 0 0
0 0 0 0 0 -0 0 0 0 -1 -0 0 0 0 0 0 0 0 0 0 0 0 0 0 0 0 0 0 0 0 0 0 0 0 0 0 0 -42 0 -101 0 0 0 0
0 0 0 -1 0 0 -0 0 -0 -1 0 0 0 0 0 0 0 0 0 0 0 0 0 0 0 0 0 0 0 0 0 0 0 0 0 0 0 0 0 -282 0 0 0 0
-0 0 0 0 -0 -7 -6 -7 -5 -30 -0 0 0 0 0 0 0 0 0 0 0 0 0 0 0 0 0 0 0 0 0 0 0 0 0 0 0 0 0 0 0 0 0 0
0 -0 -5 -0 -0 -1 -0 -0 -7 -2 -4 -6 0 0 0 0 0 0 0 0 0 0 0 0 0 0 0 0 0 0 0 0 0 0 0 0 0 0 0 0 0 0 0 0
0 -3 0 -2 0 -9 -3 -1 -6 -4 0 -1 0 0 0 0 0 0 0 0 0 0 0 0 0 0 0 0 0 0 0 0 0 0 0 0 0 0 0 0 0 0 0 0
-0 -0 0 -7 -3 -1 0 0 -0 0 0 -5 -0 0 0 0 0 0 0 0 0 0 0 0 0 0 0 0 0 0 0 0 0 0 0 0 0 0 0 0 0 0 0 0
-8 -0 -0 0 0 0 -3 0 -0 -1 -0 -0 0 0 0 0 0 0 0 0 0 0 0 0 0 0 0 0 0 0 0 0 0 0 0 0 0 0 0 0 0 0 0 0
-29 -2 -0 -0 0 0 -0 -0 0 -11 -2 -0 -1 0 0 0 0 0 0 0 0 0 0 0 0 0 0 0 0 0 0 0 0 0 0 0 0 0 0 -1 -0 -0 0 0
-2 -0 0 0 0 0 0 0 0 -0 0 0 0 0 0 0 0 0 0 0 0 0 0 0 0 0 0 0 0 0 0 0 0 0 0 0 0 0 0 0 0 0 0 0
-16 -1 -8 -0 0 -0 0 0 0 0 0 0 0 0 0 0 0 0 0 0 0 0 0 0 0 0 0 0 0 0 0 0 0 0 0 0 0 0 0 0 0 0 0 0
0 0 -0 -0 -2 -0 0 0 0 0 0 0 0 0 0 0 0 0 0 0 0 0 0 0 0 0 0 0 0 0 0 0 0 0 0 0 0 0 0 0 0 0 0 0
0 0 0 0 -0 0 0 0 0 0 0 0 0 0 0 0 0 0 0 0 0 0 0 0 0 0 0 0 0 0 0 0 0 0 0 0 0 0 0 0 0 0 0 0
0 0 0 0 -0 0 0 0 0 0 0 0 0 0 0 0 0 0 0 0 0 0 0 0 0 0 0 0 0 0 0 0 0 0 0 0 0 0 0 0 0 0 0 0
0 -0 0 0 0 -0 0 0 0 -1 0 0 0 0 0 0 0 0 0 0 0 0 0 0 0 0 0 0 0 0 0 0 0 0 0 0 0 0 0 0 0 0 0 0
0 -6 -0 0 -0 0 0 0 0 0 0 0 0 0 0 0 0 0 0 0 0 0 0 0 0 0 0 0 0 0 0 0 0 0 0 0 0 0 0 0 0 0 0 0
0 0 -0 -1 -3 0 0 0 0 0 0 0 0 0 0 0 0 0 0 0 0 0 0 0 0 0 0 0 0 0 0 0 0 0 0 0 0 0 0 0 0 0 0 0
0 0 0 0 0 0 0 0 0 0 0 0 0 0 0 0 0 0 0 0 0 0 0 0 0 0 0 0 0 0 0 0 0 0 0 0 0 0 0 0 0 0 0 0
0 0 0 0 0 0 0 0 0 0 0 0 0 0 0 0 0 0 0 0 0 0 0 0 0 0 0 0 0 0 0 0 0 0 0 0 0 0 0 0 0 0 0 0
0 0 0 0 0 0 0 0 0 0 0 0 0 0 0 0 0 0 0 0 0 0 0 0 0 0 0 0 0 0 0 0 0 0 0 0 0 0 0 0 0 0 0 0
Wind_Speed
7 7 13 14 12 20 14 18 18 12 8 8 15 18 19 18 17 20 20 17 18 20 19 15 17 19 19 19 19 20 18 18 13 11 11 11 12 10 10 10 13 14 13 14
8 20 25 16 10 17 13 11 14 9 6 8 12 19 20 21 18 21 22 21 23 19 17 18 16 17 21 21 21 20 20 20 17 13 12 10 11 11 11 10 13 15 15 15
20 19 13 20 16 14 17 18 9 11 3 9 9 21 26 19 20 22 23 23 24 23 21 20 19 20 20 22 24 22 23 23 20 20 12 11 8 9 10 11 12 13 16 15
17 24 15 10 18 18 14 13 12 12 4 7 1 11 19 13 14 15 19 21 23 24 21 21 20 20 22 22 21 23 23 24 22 23 16 19 14 14 12 12 11 11 16 16
12 17 13 18 23 21 8 13 19 20 18 11 14 8 18 15 19 20 20 19 21 21 22 23 23 21 23 21 21 21 23 22 22 20 20 16 18 12 11 11 13 14 13 17
19 5 13 24 15 13 11 6 2 3 4 9 22 15 11 19 20 20 22 21 19 19 20 22 22 20 19 17 18 18 23 23 22 22 23 22 22 18 13 13 11 11 11 11
26 23 17 7 17 22 18 7 2 5 7 11 5 16 22 16 18 19 19 17 17 15 15 17 20 18 18 19 20 18 22 22 22 22 22 23 22 20 21 17 13 13 11 10
19 14 26 21 26 16 26 22 10 10 8 12 6 13 10 20 23 22 21 18 14 14 12 15 17 16 18 18 20 22 22 22 22 24 24 21 22 15 15 17 13 12 11 11
16 19 6 15 21 24 20 19 25 14 2 5 6 18 10 9 12 14 18 18 19 17 15 17 16 16 17 16 19 21 22 21 22 23 21 21 20 20 18 20 16 12 13 12
8 10 19 11 16 14 12 6 7 5 10 14 12 22 15 8 16 17 18 18 17 15 13 13 14 14 13 15 18 20 21 21 21 21 19 18 19 20 18 15 17 17 15 15
10 8 1 12 19 21 9 12 9 4 4 11 14 15 17 19 18 19 17 12 12 12 12 13 13 13 13 12 13 16 17 19 18 18 18 18 17 17 17 16 16 16 15 15
21 3 11 16 8 11 23 15 17 10 7 7 8 17 2 4 8 14 10 6 9 11 12 11 11 10 10 11 12 15 14 16 17 16 16 17 17 16 16 16 16 15 16 15
11 11 10 4 3 8 14 24 23 13 4 15 8 14 9 13 8 8 11 12 8 7 9 8 8 9 11 11 11 13 14 15 15 16 16 17 17 17 16 16 15 15 14 13
14 11 13 17 2 2 4 18 21 20 9 10 15 28 29 17 8 11 11 11 9 7 7 7 7 7 8 8 9 11 13 12 12 14 16 17 16 15 15 15 14 13 13 13
7 4 10 15 14 12 12 14 12 20 23 15 22 29 34 25 21 21 19 13 9 11 9 8 6 7 8 8 10 9 11 12 12 13 14 15 13 13 13 12 12 12 12 11
12 5 8 7 15 15 19 18 20 23 19 20 31 34 36 30 19 19 18 18 22 22 18 9 10 8 9 10 11 9 10 11 12 13 14 11 10 11 11 10 9 8 8 8
5 5 3 7 9 11 13 23 22 23 23 20 20 37 37 28 24 21 19 18 21 21 20 17 16 11 10 11 10 11 10 8 12 12 10 8 7 8 7 7 7 7 8 6
5 3 2 4 1 11 13 7 14 21 22 24 28 35 37 31 29 20 20 22 24 20 18 15 16 17 9 7 10 10 8 8 7 8 8 8 9 8 7 7 7 6 6 7
14 6 5 5 7 15 21 17 11 10 20 20 27 34 36 38 15 28 33 30 28 21 22 22 17 15 9 11 10 9 9 9 9 10 10 11 11 10 10 9 10 6 6 4
12 13 7 3 5 9 29 2 12 13 21 18 18 28 33 30 15 29 29 24 28 26 23 20 15 9 10 8 9 10 10 11 14 12 11 9 10 12 12 11 10 6 7 6
5 6 14 13 8 13 16 6 3 10 25 8 15 24 26 22 21 34 23 21 20 22 23 18 14 14 17 10 11 13 12 16 13 7 8 9 10 12 12 12 7 10 10 9
9 7 7 7 9 20 3 9 17 9 18 16 20 19 21 20 26 31 26 26 24 25 19 12 13 16 12 11 13 14 16 15 10 12 10 9 8 7 8 11 10 10 11 11
7 10 5 9 7 13 10 11 8 12 12 17 19 23 22 25 24 22 22 23 21 19 14 8 14 14 9 10 14 15 14 10 11 11 11 10 8 9 10 11 11 10 10 10
6 7 8 9 18 16 15 5 12 20 17 19 18 22 22 24 24 23 16 13 12 9 9 4 8 10 10 9 10 11 8 11 13 11 11 11 11 9 10 7 8 9 10 9
4 7 4 10 9 20 8 13 21 25 21 23 23 20 24 22 22 20 19 15 12 10 7 5 8 8 6 5 6 5 9 12 11 11 11 10 8 9 9 7 6 7 4 8
5 5 4 8 12 8 18 19 27 20 23 22 23 27 20 21 21 20 18 13 13 10 9 6 5 3 2 3 5 5 7 10 11 10 8 8 9 8 8 8 7 9 8 10
Wind_Direction
189 211 212 216 219 231 260 234 244 238 221 218 242 249 255 259 251 254 254 252 246 237 236 227 215 210 209 210 204 207 205 206 197 202 199 207 212 210 213 217 216 213 214 212
193 224 224 217 229 221 211 205 226 254 226 226 262 265 263 259 254 248 251 252 250 242 241 229 218 208 208 208 209 207 206 206 200 200 203 207 210 220 215 214 217 216 214 215
226 232 227 219 219 225 203 213 190 239 195 235 277 273 266 252 245 247 248 246 247 245 232 227 219 210 210 210 209 208 206 205 204 206 202 205 214 220 215 217 215 214 215 215
241 239 234 204 227 218 240 213 221 235 254 256 167 287 271 264 241 238 247 242 244 244 237 235 230 215 209 213 211 209 209 207 204 202 202 201 205 207 213 215 216 215 215 218
216 213 197 212 214 210 257 237 212 221 232 246 234 259 267 265 259 257 255 244 242 241 241 234 230 222 214 208 205 207 209 210 205 201 202 200 212 218 215 217 216 213 212 215
242 215 225 228 228 225 155 125 285 148 227 235 233 219 242 252 256 255 252 249 246 241 237 237 234 229 224 215 206 205 209 210 205 203 203 204 210 211 209 214 210 212 213 213
221 228 224 222 210 204 226 167 231 224 207 240 238 217 241 257 249 253 257 253 245 248 247 240 235 228 222 210 205 204 207 211 206 205 207 210 212 210 213 210 209 212 213 212
213 214 216 210 220 204 212 210 209 227 211 246 140 232 250 224 244 245 245 254 260 255 247 239 235 228 224 215 208 206 207 209 205 206 210 210 211 214 215 214 212 216 215 212
205 231 190 198 213 218 207 219 226 269 4 293 224 257 268 215 240 247 247 248 248 251 242 240 237 230 222 221 216 211 211 212 208 208 209 211 211 213 214 216 216 214 215 218
219 248 224 200 219 234 225 216 198 209 223 241 233 253 252 211 240 242 255 255 254 259 262 254 249 237 224 220 222 218 216 212 210 208 209 210 210 214 214 212 215 214 216 216
230 239 125 191 202 206 187 216 217 230 210 231 245 250 255 249 230 232 235 254 269 264 261 262 253 239 225 217 219 221 218 216 211 208 208 210 211 211 214 214 212 214 214 210
206 261 252 246 265 286 219 212 218 230 218 237 273 267 232 238 264 240 244 262 271 270 269 273 271 254 223 208 211 218 214 214 212 207 205 208 209 208 209 214 214 211 213 213
174 222 240 256 260 222 230 219 216 241 283 206 218 252 222 259 237 235 257 262 256 279 283 274 273 251 237 203 206 216 216 217 213 207 202 204 207 206 207 209 209 208 209 208
186 221 217 229 202 40 192 222 224 222 243 236 240 264 260 245 264 292 281 248 260 273 278 279 264 249 251 249 223 211 220 214 209 206 206 205 204 202 202 207 205 203 201 202
199 225 236 255 287 297 262 270 266 243 234 228 242 246 261 252 253 260 267 291 287 276 259 258 270 254 234 241 240 231 220 210 203 204 208 209 201 200 201 199 194 193 194 201
198 256 224 242 248 254 261 255 256 232 233 261 252 258 258 264 276 264 262 261 265 266 271 253 239 231 234 219 227 228 221 209 196 202 208 203 191 185 186 184 179 177 176 171
178 197 212 261 222 236 252 241 239 245 239 219 250 247 269 274 263 262 265 262 265 267 271 282 281 250 222 227 211 221 223 205 201 198 193 173 169 173 176 161 156 165 166 143
162 169 213 243 12 249 242 270 241 240 234 232 244 261 266 259 262 271 266 255 256 259 264 259 260 267 235 210 214 205 188 199 201 200 187 174 174 172 154 154 161 148 147 155
214 192 246 243 234 288 287 248 225 237 261 233 240 254 263 270 293 265 252 248 256 257 259 253 253 259 225 217 207 194 178 187 192 201 193 180 171 160 160 165 165 159 150 147
217 226 233 224 250 259 260 355 211 233 276 231 239 254 261 272 262 259 258 247 248 243 241 252 235 227 227 219 166 173 195 189 207 196 192 176 166 161 164 159 154 140 146 134
164 210 218 230 238 263 274 150 185 213 255 341 252 253 259 260 247 264 278 267 255 252 247 238 230 225 233 184 170 194 184 208 201 166 156 172 171 165 163 152 147 149 144 138
192 193 210 229 222 258 69 204 221 332 320 359 353 324 330 310 281 271 266 267 260 257 254 240 224 231 230 179 179 199 200 202 169 163 161 174 165 152 151 150 146 149 146 148
239 214 231 218 219 263 57 89 51 2 336 333 332 320 321 310 304 320 303 277 271 264 253 215 221 235 213 189 191 196 215 157 156 163 158 157 154 151 152 157 155 153 159 162
247 4 252 282 255 283 334 135 16 357 335 326 324 316 314 312 314 310 316 317 310 302 272 235 221 229 221 192 198 219 147 151 149 163 157 153 157 163 152 157 165 166 171 171
335 339 353 271 285 330 200 22 358 333 333 327 324 322 315 317 307 309 313 315 308 299 305 283 251 241 229 176 171 139 145 146 156 161 153 158 155 166 151 152 164 171 160 177
16 358 276 285 348 310 294 319 327 332 328 326 322 320 319 316 310 318 308 308 308 343 341 332 348 338 112 128 127 133 145 148 150 154 156 161 152 159 148 138 113 94 120 116